Theta_e
320 322 324 325 325 326 326 327 327 327 327 327 326 326 326 325 326 326 326 326 326 326 325 325 325 325 325 324 324 324 324 324 325 325 324 324 324 324 324 324 323 323 323 323 323 323 322 321 321 322 323 322 321 320 320 320 320 319 319 318 317 317 316 313 310 310 316 319 318 318 310 309 309 308 307 307 304 301 298 301 301 300 299 299 299
320 322 323 325 325 325 326 327 327 327 326 326 325 325 326 325 326 326 325 326 326 325 325 325 325 325 325 324 323 324 324 324 324 324 323 323 323 324 324 322 321 321 322 321 322 322 322 321 321 322 322 320 321 320 319 318 317 315 315 315 315 315 315 312 310 311 310 314 311 306 305 304 307 304 304 304 302 300 298 297 297 297 298 298 298
319 321 322 323 324 325 326 326 326 326 325 325 324 324 325 325 326 325 325 326 326 325 325 325 325 325 324 323 323 323 323 323 324 323 322 322 321 322 324 322 321 320 319 320 322 322 320 319 319 319 319 318 319 319 318 316 315 313 313 313 312 313 314 314 312 309 308 309 306 304 299 297 302 301 299 300 297 297 295 295 296 296 296 296 297
318 319 320 322 323 324 324 325 325 324 323 324 323 324 324 325 325 325 325 325 324 324 325 325 324 323 323 322 322 321 322 322 322 321 322 322 321 321 321 321 321 320 320 319 318 316 316 315 316 317 317 315 315 315 316 315 313 312 311 312 313 313 314 311 310 309 305 305 299 302 298 297 296 294 295 294 294 293 293 294 295 294 295 295 295
317 318 319 320 321 322 322 323 322 322 322 323 323 324 324 325 325 324 324 324 324 322 321 323 323 322 321 321 320 320 320 320 321 320 320 321 321 321 320 320 320 320 320 320 310 316 315 315 316 315 314 312 312 313 314 312 311 311 311 311 310 310 309 307 306 303 303 302 300 295 294 295 294 294 294 294 292 291 291 291 291 292 293 294 294
314 316 317 318 319 319 320 320 320 320 321 322 323 324 324 324 324 322 322 322 322 320 319 319 319 319 319 320 320 319 319 319 319 319 319 319 319 320 320 318 318 320 320 319 319 317 316 316 316 315 313 312 312 312 311 310 309 308 308 307 307 305 304 302 299 299 299 302 301 300 294 295 292 291 291 292 292 292 291 291 290 291 291 291 292
310 312 314 315 316 316 317 318 318 319 320 321 322 323 323 322 321 319 318 319 319 316 316 316 316 317 318 319 318 318 318 318 318 318 319 319 317 317 317 317 316 316 316 317 317 317 316 315 315 314 313 313 313 313 311 310 310 309 308 307 305 300 300 300 298 297 298 299 298 297 296 294 295 297 290 290 291 292 291 291 291 292 291 291 290
306 308 311 312 313 315 315 316 317 317 318 318 318 318 319 319 318 318 315 314 316 315 314 314 314 314 316 316 317 317 317 316 317 317 318 318 317 316 315 314 314 313 312 312 312 313 313 314 314 313 313 314 313 312 311 309 310 309 307 305 302 299 299 299 296 295 295 296 297 296 296 296 291 290 288 288 288 289 289 289 291 293 292 290 291
303 305 307 309 311 313 314 314 315 314 313 313 313 313 314 314 314 313 312 312 313 314 314 313 312 311 311 312 313 314 314 315 316 316 316 316 316 315 314 313 313 313 313 311 310 310 311 312 313 314 311 301 300 302 303 303 310 308 305 303 300 297 297 296 296 295 295 294 294 294 294 294 295 291 289 289 290 294 290 289 290 291 291 291 293
301 303 304 306 309 311 312 312 312 312 310 309 310 310 310 310 310 309 309 309 310 309 310 310 311 310 309 309 310 311 311 313 305 303 304 313 313 313 312 312 312 313 311 309 307 307 308 308 308 297 296 294 295 295 297 297 299 306 309 302 300 298 297 295 295 294 295 294 296 296 294 295 296 294 294 294 292 291 290 290 289 291 290 288 290
300 301 303 305 306 308 308 308 308 308 308 307 307 307 307 307 307 307 307 305 306 306 307 308 308 309 309 308 308 308 309 309 301 301 302 303 310 311 311 310 310 310 309 310 308 303 300 299 302 296 292 291 293 292 294 294 294 295 297 297 297 302 297 295 295 296 296 295 297 297 295 298 298 296 295 294 291 291 290 290 289 289 289 290 291
300 300 301 303 304 304 304 305 305 306 305 304 305 305 304 303 304 304 303 301 301 301 303 307 308 308 308 308 307 307 308 301 301 300 300 301 301 309 311 310 308 307 307 308 309 306 302 300 297 298 297 298 299 297 293 292 293 293 294 294 294 295 297 298 296 293 292 295 294 294 297 298 298 295 294 292 292 291 291 291 290 289 289 289 290
300 301 302 301 302 302 302 303 303 304 304 303 303 301 300 300 300 300 301 302 299 299 303 304 305 305 306 306 306 306 306 301 299 299 299 299 299 303 310 309 308 306 305 304 304 303 301 299 297 296 298 290 293 298 298 296 291 291 292 292 292 293 295 295 295 298 296 293 293 295 297 298 296 296 296 294 295 294 293 291 289 289 289 289 290
300 301 302 302 301 301 301 301 301 302 303 302 300 299 298 298 300 300 299 298 299 300 299 300 302 302 303 305 306 306 305 300 298 298 298 298 299 301 310 310 310 308 304 302 301 299 299 298 298 297 296 294 294 296 297 298 297 295 294 294 295 292 291 293 291 290 293 296 295 295 297 297 297 298 296 294 293 291 291 290 289 288 288 288 288
300 300 301 301 301 301 301 301 301 301 301 299 298 298 298 299 298 298 298 298 299 299 299 299 300 300 301 302 303 304 305 298 297 297 298 298 299 299 307 306 306 304 305 303 302 301 300 299 299 299 298 296 296 296 297 297 296 294 293 294 296 296 294 294 295 294 293 295 296 298 296 296 298 296 294 294 294 294 290 289 288 288 287 285 285
300 300 300 300 301 301 301 300 300 300 300 298 296 296 296 297 297 296 296 297 297 298 298 299 299 299 300 300 301 302 304 297 296 296 297 297 297 299 303 303 302 300 299 299 300 301 301 302 302 302 301 299 295 292 294 297 294 290 290 290 291 291 291 287 289 290 292 293 294 294 294 292 291 292 291 292 292 289 286 286 285 285 284 284 284
300 300 299 300 300 301 300 300 300 299 298 296 295 295 294 295 295 296 295 295 296 296 298 298 299 299 298 298 300 302 302 297 295 295 296 296 297 299 301 300 300 299 299 298 298 299 301 300 299 299 298 298 295 293 294 293 292 289 289 288 288 288 288 286 288 288 288 289 289 289 288 288 288 288 287 287 287 287 286 285 284 284 284 283 284
300 300 300 301 301 301 300 300 299 298 297 295 295 295 295 296 295 295 295 295 295 296 297 297 297 297 297 298 299 299 300 295 293 295 295 295 296 301 300 298 298 298 299 298 298 297 297 291 292 297 297 297 294 293 293 292 291 289 289 288 287 287 287 285 286 287 288 288 288 287 288 289 289 289 289 288 286 286 285 284 285 284 283 284 283
300 300 300 301 301 301 300 299 298 297 296 296 296 295 295 294 293 295 295 296 296 297 294 297 295 295 295 296 291 296 297 294 292 294 294 295 294 300 299 296 296 297 296 295 295 295 295 290 289 292 296 296 293 293 293 292 292 289 289 288 288 287 288 286 285 285 285 285 285 285 285 285 287 288 288 288 286 285 285 284 284 284 283 283 283
300 301 301 301 301 300 299 297 298 297 296 296 296 296 293 294 293 293 294 295 295 295 294 294 293 293 293 292 293 294 295 295 292 292 294 294 295 297 296 295 294 295 296 296 293 293 294 294 291 290 293 294 293 293 293 292 292 291 290 290 289 289 289 285 286 286 285 285 285 285 284 285 285 285 286 285 284 284 284 284 285 285 284 283 283
300 300 300 300 300 299 299 298 297 296 295 295 294 293 294 294 293 292 291 292 293 293 292 292 292 293 293 292 292 293 294 294 291 291 293 294 294 294 295 295 296 295 294 293 294 294 293 293 293 290 292 293 293 293 293 292 292 291 290 291 291 291 287 285 285 285 285 284 283 284 284 284 284 285 285 285 285 285 284 284 284 284 284 283 283
300 300 299 299 298 298 297 297 294 293 292 293 292 293 293 292 292 292 292 292 290 290 290 291 291 291 291 292 292 292 292 289 293 290 292 293 293 293 294 294 296 295 294 293 294 296 296 294 293 291 290 292 292 292 293 292 292 290 290 292 291 289 286 285 285 285 285 284 284 284 284 284 284 284 284 284 284 284 283 283 283 283 283 283 283
299 298 298 297 293 292 293 292 292 292 291 291 291 291 291 290 290 290 290 290 290 289 290 290 290 291 291 292 291 291 293 290 289 291 290 292 292 293 293 294 294 295 294 293 293 294 296 294 293 288 289 290 291 292 292 292 290 290 291 290 289 287 286 285 284 284 284 284 284 284 283 284 283 282 282 282 282 282 282 282 281 281 281 281 281
295 293 291 291 292 291 290 290 291 291 291 291 291 290 291 290 290 290 290 290 291 290 290 290 290 290 290 291 291 292 291 292 289 288 290 290 292 293 293 294 294 293 294 295 295 297 295 294 291 289 289 290 291 292 292 291 290 290 290 289 287 285 285 284 284 284 284 283 283 283 283 283 283 282 282 282 281 280 280 279 279 279 279 279 278
290 290 290 290 290 290 290 290 290 290 290 291 290 291 289 289 290 290 289 290 290 290 291 290 290 290 291 291 291 292 291 291 291 289 288 289 291 292 293 293 294 293 293 294 296 296 293 292 291 289 289 289 290 291 290 289 289 289 289 287 285 285 285 284 284 284 283 283 283 283 282 282 282 282 282 280 279 278 277 276 276 276 276 276 276
288 288 289 289 289 289 288 288 289 289 289 291 291 292 291 290 290 291 290 290 290 290 291 291 291 290 291 292 292 292 291 291 291 290 288 288 289 290 291 291 291 291 292 294 291 292 291 291 290 289 288 288 289 289 289 289 287 287 286 285 285 285 285 284 283 283 283 283 283 282 282 282 281 280 279 279 279 279 278 278 277 276 277 277 276
288 288 288 289 289 288 288 290 291 289 289 291 291 291 293 292 290 291 291 290 290 291 291 291 291 291 291 291 292 292 292 291 291 291 290 290 290 290 290 291 289 289 290 292 290 291 290 290 290 288 288 287 288 287 287 287 286 287 286 285 285 285 284 284 284 284 284 283 282 282 282 281 280 278 278 279 279 279 279 278 278 277 277 278 277
288 288 288 289 290 290 289 288 289 291 290 290 291 291 292 291 292 291 291 291 291 290 291 291 291 291 291 292 292 292 292 292 291 291 290 291 291 291 291 291 291 292 292 292 291 290 290 287 287 287 288 287 288 288 288 288 287 287 286 285 285 284 284 284 284 285 284 284 283 282 281 280 279 279 279 279 278 278 279 278 277 277 277 276 276
287 287 288 289 289 290 290 290 290 291 291 289 291 292 292 291 291 291 292 293 293 292 292 292 292 292 293 293 292 292 292 292 292 290 291 290 290 291 291 291 292 292 291 291 288 288 288 287 287 287 287 287 287 287 287 287 286 286 286 285 284 283 283 283 282 283 283 282 281 281 280 280 279 279 278 278 277 277 278 277 277 276 276 277 276
287 288 288 289 289 290 290 291 290 290 290 290 289 289 288 288 290 291 292 289 288 289 290 293 293 294 293 294 293 293 293 294 291 290 290 290 290 291 291 291 291 291 290 289 289 288 287 287 287 287 287 286 286 285 285 285 284 282 283 284 283 282 282 282 283 283 283 282 282 281 279 279 278 278 277 277 277 277 277 277 276 276 275 275 275
289 290 289 289 290 289 290 290 289 290 290 291 290 290 290 289 287 287 288 288 288 288 288 288 288 289 292 293 292 290 289 289 288 289 289 290 290 290 290 291 291 290 290 288 289 289 287 287 287 288 287 287 285 284 285 284 282 281 281 282 283 282 283 283 283 283 282 282 281 280 279 278 277 277 276 276 276 276 276 277 276 276 275 275 275
288 289 289 290 289 290 289 289 289 289 290 290 289 290 290 290 290 288 287 287 287 287 287 287 288 288 288 289 290 293 290 288 287 287 288 288 289 289 290 290 290 290 290 290 288 288 289 288 288 287 287 286 285 285 284 284 281 281 281 281 281 282 282 283 283 282 281 281 280 279 278 278 277 277 277 276 276 275 275 275 275 274 275 275 275
285 286 287 288 289 289 289 289 289 289 289 288 288 289 289 290 290 290 289 286 287 287 287 287 287 288 288 288 288 289 290 289 288 287 287 288 288 288 289 290 290 290 290 288 289 289 289 289 289 288 286 286 285 285 284 283 282 280 281 281 280 280 281 282 282 281 280 280 279 278 278 277 277 276 276 276 276 275 275 274 275 275 274 274 274
284 285 286 286 286 287 288 288 289 290 290 290 289 289 289 289 290 290 290 289 287 287 286 287 287 287 287 288 288 288 288 288 288 287 287 287 288 288 288 288 290 290 289 288 289 289 289 289 289 288 286 286 286 284 283 283 281 281 280 280 280 280 279 279 280 279 279 279 278 277 277 277 277 276 276 276 276 276 275 275 274 273 273 274 274
284 282 281 281 285 286 287 288 288 288 289 289 289 289 288 289 289 289 289 289 290 289 289 288 287 287 288 288 288 288 288 288 288 288 287 288 288 288 289 288 287 287 288 288 289 290 289 288 288 287 286 285 284 283 282 282 281 280 279 279 278 277 277 277 278 278 278 278 277 277 276 276 276 276 276 275 275 275 274 274 274 274 273 274 274
284 285 285 284 285 286 286 287 287 288 288 288 288 289 289 289 289 289 289 289 289 289 289 289 289 287 286 287 287 288 288 288 288 288 288 288 288 289 286 286 286 287 286 287 288 289 289 289 288 287 286 285 284 282 283 282 281 280 280 279 277 276 275 276 276 276 277 277 276 276 276 276 276 276 276 276 275 275 275 274 274 274 274 274 274
284 284 285 285 285 285 285 285 285 286 286 286 287 288 288 288 288 289 289 289 289 289 289 289 288 288 286 287 287 287 287 288 288 288 287 288 288 288 288 288 287 287 287 287 287 288 288 288 287 286 285 283 283 283 282 281 280 280 280 280 277 276 276 276 276 276 276 276 276 276 276 276 276 276 276 275 275 275 274 274 274 273 273 273 273
282 283 283 282 282 282 283 284 285 283 284 285 286 287 287 287 288 288 288 288 288 288 288 288 287 287 287 287 287 287 287 287 287 287 287 287 287 288 288 288 288 287 287 287 287 287 286 285 285 284 283 283 283 282 282 281 280 280 279 278 277 276 277 276 276 276 276 276 276 276 276 276 276 275 275 275 274 274 274 273 273 272 273 272 272
282 281 280 280 280 281 282 282 283 284 284 285 286 286 286 286 287 287 288 288 288 288 287 288 288 287 288 289 287 287 287 286 286 286 286 287 288 288 288 288 288 287 287 287 284 284 284 283 283 283 282 282 281 281 281 280 279 279 277 277 277 276 276 276 276 276 276 276 276 276 276 275 275 275 275 274 274 273 273 273 273 272 271 271 272
282 282 281 280 280 281 281 281 282 282 283 284 284 285 286 286 286 287 287 287 287 287 288 287 287 287 288 288 287 287 286 286 286 287 286 286 286 286 287 287 287 287 286 285 284 284 283 282 281 281 281 280 280 280 279 278 278 277 277 277 277 276 277 277 276 276 276 277 276 276 275 275 275 275 274 274 273 273 273 272 272 272 272 271 271
282 282 279 281 280 280 280 281 281 282 282 283 284 284 285 285 286 286 287 287 287 287 287 287 287 287 287 286 286 286 287 286 286 286 286 286 286 286 286 287 287 286 284 283 282 283 282 280 279 280 279 278 278 278 277 277 277 277 277 277 277 277 277 277 277 277 277 276 275 275 275 274 274 273 272 273 273 273 273 272 272 272 272 272 271
281 281 282 282 281 281 281 281 282 281 281 282 283 283 284 285 285 285 285 285 285 286 286 286 286 286 285 285 285 285 286 287 287 286 286 286 286 286 286 286 285 285 284 283 281 280 279 278 278 278 278 278 277 277 277 277 278 278 277 277 276 276 275 275 275 275 275 274 273 273 273 272 272 272 272 272 271 271 271 271 271 271 270 270 270
279 280 280 281 281 281 281 281 282 281 282 282 283 281 282 284 284 284 285 284 285 285 285 285 285 284 283 284 284 285 285 286 283 285 285 284 285 284 284 284 282 282 282 281 281 279 278 278 277 277 277 277 277 277 277 277 277 277 276 276 275 275 274 273 273 273 273 272 271 271 270 270 269 269 269 269 269 269 269 269 269 270 269 269 269
279 279 279 279 280 280 280 281 280 281 281 280 281 282 282 283 283 283 284 284 284 284 284 284 284 282 281 282 282 282 283 284 283 284 282 281 282 281 281 279 278 278 277 277 277 277 276 276 275 275 276 276 277 277 277 277 277 276 276 274 274 273 273 272 271 271 270 269 268 268 267 267 267 268 267 267 267 267 268 268 268 268 268 268 269
277 278 278 279 279 279 279 279 279 280 280 279 280 281 281 281 282 282 283 283 282 283 283 283 282 280 280 281 281 281 282 282 280 279 278 278 277 276 275 274 275 275 275 275 275 275 275 274 273 273 272 273 274 275 275 276 276 276 275 274 273 272 272 271 270 270 269 268 267 266 266 266 266 266 266 266 266 267 267 267 267 266 267 267 267
277 277 277 278 278 278 278 279 278 279 279 279 279 280 280 281 281 281 281 282 282 282 281 281 280 279 279 279 280 279 280 279 277 276 274 274 273 273 273 273 274 273 273 273 274 274 273 272 272 272 271 270 271 270 271 271 272 273 274 274 273 272 271 269 268 268 268 267 266 266 265 265 265 265 265 266 266 266 266 265 265 265 265 265 266
276 276 277 277 277 277 278 278 278 278 279 279 279 279 279 280 280 280 280 280 281 280 280 279 278 277 277 278 278 278 277 275 274 273 273 272 272 271 271 272 272 272 272 272 273 272 272 272 271 271 269 268 268 268 267 268 268 268 268 268 267 266 266 266 267 267 266 266 266 266 265 265 264 264 264 264 264 264 264 264 264 263 264 264 263
275 275 276 276 277 277 277 278 277 276 277 278 278 278 278 279 279 279 279 279 278 278 278 277 277 277 277 276 276 276 274 273 273 272 271 270 270 270 270 270 270 270 270 270 271 271 271 270 269 267 266 266 266 266 266 266 266 266 266 265 265 265 265 265 265 265 265 265 265 265 265 264 264 264 264 263 263 264 263 263 263 263 263 262 263
274 274 275 275 276 276 276 277 277 277 277 277 277 277 277 278 277 278 278 277 277 277 277 276 276 276 275 274 273 272 272 271 270 270 269 269 269 269 270 270 269 270 270 270 270 269 268 268 267 266 266 266 265 265 265 264 264 264 264 264 264 264 264 264 265 265 264 265 265 264 264 264 263 263 263 263 263 263 263 263 263 262 262 262 262
274 274 274 275 275 276 276 277 277 277 277 277 277 276 277 276 276 276 276 275 276 275 275 276 275 274 273 273 271 271 270 269 269 269 268 269 269 269 268 268 268 267 267 266 266 266 266 265 265 265 265 264 264 264 264 263 264 264 264 264 264 264 264 264 264 264 264 264 264 264 263 263 263 263 263 262 262 262 261 261 261 262 261 261 261
273 273 274 274 275 275 276 276 276 276 276 276 276 276 275 275 275 275 275 275 274 274 274 274 274 273 272 271 271 271 269 269 269 269 268 267 267 267 266 266 266 266 265 265 265 265 265 264 264 264 264 263 263 263 263 263 263 264 264 265 264 264 264 264 263 263 263 263 263 263 262 262 262 261 261 261 261 261 261 261 261 261 261 261 261
Wind_Speed
14 13 12 12 13 14 13 13 14 12 12 12 12 12 11 11 16 14 10 13 11 12 12 13 14 15 15 14 14 14 14 13 12 13 12 11 10 11 11 12 13 12 10 10 10 10 10 10 10 9 9 9 8 7 7 8 7 7 8 9 8 6 6 7 10 11 6 6 10 9 2 1 2 2 3 2 2 2 4 5 4 4 4 5 4
12 11 11 10 13 13 13 12 12 11 13 16 17 15 13 13 16 13 15 16 11 12 15 15 14 16 15 15 15 15 15 14 13 10 10 12 12 10 10 10 11 11 10 11 10 9 10 10 10 11 9 10 9 8 7 7 7 7 8 7 7 6 5 6 7 9 12 6 5 0 1 2 3 2 3 3 2 2 2 2 2 3 4 4 4
10 10 10 10 12 12 11 11 13 13 15 15 16 16 15 16 15 16 16 15 12 13 16 16 16 15 15 14 15 15 15 13 11 10 11 11 11 11 11 11 11 10 10 11 10 10 10 10 10 9 8 9 10 8 7 8 7 8 8 6 7 6 6 7 7 9 9 7 1 2 3 2 4 2 0 0 1 0 2 2 3 2 3 4 4
9 10 10 11 12 12 12 10 11 14 16 15 16 17 16 15 15 16 16 15 13 14 15 15 14 15 15 14 13 12 12 11 10 10 12 11 10 11 10 10 10 11 11 10 9 8 9 9 9 8 8 9 9 7 7 7 7 6 7 6 6 7 7 5 6 8 5 7 2 4 2 3 2 1 1 1 1 1 2 1 1 2 3 3 5
8 9 10 11 10 10 11 12 14 16 16 15 17 17 17 15 14 15 15 14 14 13 10 12 14 14 13 14 13 11 11 11 12 11 10 10 11 10 10 10 11 11 10 10 9 10 9 10 9 8 8 8 7 7 7 8 7 7 7 6 6 5 5 6 7 5 6 8 5 2 2 2 1 1 2 2 1 1 0 2 2 2 3 4 3
7 8 8 9 9 11 12 14 15 16 16 17 17 17 16 16 14 9 12 14 12 9 11 9 9 9 11 12 12 11 10 10 11 11 11 10 10 10 10 9 10 11 10 11 10 9 9 9 9 9 8 9 9 7 7 9 7 7 6 5 5 5 5 6 5 6 6 7 6 5 3 4 2 2 2 2 2 1 1 2 3 4 4 4 4
7 8 8 9 8 10 13 15 14 15 16 16 15 15 14 14 11 10 9 10 9 8 9 9 9 10 11 11 10 11 11 11 11 11 11 11 10 10 10 10 9 8 9 9 10 10 10 9 9 9 9 9 9 9 8 9 8 8 7 7 6 5 6 6 6 6 7 7 5 5 4 3 3 4 2 1 1 1 2 1 4 3 4 4 3
7 7 7 8 9 11 11 10 11 14 13 11 10 9 10 9 9 9 8 10 11 11 10 11 10 10 11 10 11 10 10 11 11 11 11 11 10 10 9 9 9 8 8 8 8 8 9 9 9 9 9 9 9 9 8 9 7 9 7 6 6 6 7 6 6 5 5 6 6 5 5 4 1 1 2 2 1 2 5 3 4 3 2 2 4
7 7 8 9 11 11 9 8 9 11 9 8 9 9 8 8 8 8 9 11 10 10 10 10 10 10 10 10 10 10 11 12 11 11 11 11 10 11 10 10 10 10 9 8 7 8 8 8 7 9 10 11 12 11 10 9 8 8 6 7 7 6 6 5 6 6 5 5 5 3 3 4 5 3 3 4 6 4 4 5 4 3 2 3 3
7 8 10 11 9 8 8 7 9 11 9 10 11 10 9 9 9 9 10 10 9 8 8 9 10 11 11 10 10 10 11 10 12 16 14 11 10 9 9 10 10 10 10 9 8 8 8 8 8 11 12 13 13 13 12 13 12 9 7 8 9 7 7 6 6 6 6 5 7 6 5 6 5 6 6 6 3 3 3 4 2 2 1 2 4
7 8 10 9 7 6 7 8 7 10 12 10 9 10 10 9 9 10 9 8 9 9 9 10 11 11 11 11 11 11 11 11 15 15 17 17 13 11 10 9 9 9 10 11 11 9 7 6 6 8 9 9 10 12 12 12 12 12 10 11 10 11 9 7 7 8 6 5 6 6 6 7 6 5 5 4 4 5 3 2 2 2 2 2 3
7 8 9 6 6 8 8 7 8 9 10 11 12 10 8 8 9 10 9 9 10 7 10 12 11 10 10 10 12 12 12 13 16 17 17 18 16 11 10 10 10 9 9 10 10 9 9 8 7 6 7 9 9 10 11 11 12 12 12 12 13 15 13 11 8 5 5 5 5 6 6 7 5 5 5 4 5 3 3 4 4 3 3 3 2
8 8 7 6 7 7 7 7 8 8 9 11 10 8 9 9 10 10 12 11 7 10 12 11 11 10 11 12 13 13 12 15 18 18 18 18 18 13 9 9 10 10 9 9 8 8 8 8 8 7 7 11 8 8 7 8 9 11 11 12 13 14 14 12 7 8 8 6 6 5 8 6 6 5 5 5 4 6 5 4 3 3 3 3 3
7 8 6 7 7 6 7 8 9 10 7 6 7 8 9 12 11 9 8 7 10 11 10 12 11 11 13 13 13 11 12 14 18 17 17 18 18 15 9 10 10 10 10 9 9 9 9 9 8 8 7 8 8 8 8 8 8 7 8 8 8 11 11 11 9 7 7 7 6 7 6 5 4 4 5 5 6 4 4 4 3 3 3 3 0
6 6 6 7 7 8 8 8 9 7 5 6 7 9 11 11 10 10 9 11 11 13 12 12 12 12 12 12 11 12 13 14 16 18 17 17 16 12 10 10 10 9 10 10 11 10 9 9 8 9 9 10 8 10 9 9 8 8 7 6 6 6 6 6 7 6 5 5 5 4 4 4 4 3 4 4 6 4 2 2 2 1 0 0 1
6 6 8 8 9 9 9 8 7 6 5 6 8 11 12 13 12 9 8 9 9 8 9 10 12 13 13 12 12 13 11 14 16 17 16 15 15 10 10 10 9 8 8 9 9 9 9 10 10 11 10 9 11 15 13 9 9 8 8 5 3 2 2 3 4 3 2 2 2 2 3 3 3 3 4 4 4 3 3 2 2 2 2 2 3
7 8 8 8 9 9 9 8 7 7 7 8 10 12 12 12 11 8 10 10 10 11 12 12 11 10 11 11 12 13 10 12 16 16 15 15 11 10 10 8 8 10 11 9 8 9 9 9 10 9 10 11 12 15 15 11 8 10 8 7 4 3 3 1 2 4 4 5 6 7 7 7 6 5 4 3 2 4 3 3 4 3 3 3 3
8 7 9 9 10 8 8 9 9 9 9 12 13 12 11 9 11 9 11 11 12 13 10 8 9 9 11 12 13 12 10 9 14 14 15 16 14 11 9 9 10 10 10 10 9 10 10 13 11 10 10 10 11 15 15 13 8 8 7 7 7 6 4 2 2 2 6 7 8 8 7 6 6 5 5 6 6 6 4 4 3 3 4 3 3
7 9 10 9 8 7 7 8 10 12 12 12 11 11 11 10 6 7 9 9 10 7 6 9 9 8 10 11 9 11 10 8 12 15 16 16 13 11 9 7 9 12 11 10 8 8 9 9 13 12 10 10 13 15 16 13 8 9 8 8 9 10 8 7 6 6 4 4 4 4 4 4 4 4 4 7 6 4 3 1 2 3 3 2 2
8 8 7 6 5 6 7 10 10 11 14 12 8 8 3 5 6 7 8 7 8 8 8 8 9 9 7 8 9 10 10 9 10 15 16 17 17 12 7 9 13 13 11 10 8 9 9 9 11 13 14 13 15 17 17 17 10 8 8 10 10 11 6 7 6 4 5 5 5 4 3 3 3 3 3 3 2 3 1 2 1 1 1 1 1
8 7 7 7 6 7 7 8 11 10 7 5 5 5 6 7 6 7 8 5 6 7 8 7 8 9 7 8 8 9 10 10 9 15 16 17 18 17 11 14 12 9 9 8 9 10 10 9 8 12 16 13 14 16 18 18 13 8 10 10 10 7 11 8 7 7 5 5 5 5 4 3 3 2 3 3 2 2 2 1 0 0 1 2 2
7 6 8 6 5 5 8 8 7 7 6 5 6 7 6 6 7 7 5 6 9 9 7 7 7 8 6 7 9 11 10 13 11 13 18 19 19 22 13 13 11 8 8 9 9 10 11 9 9 10 15 14 13 14 16 17 16 7 9 9 8 13 11 6 6 6 6 6 5 4 4 4 4 3 3 3 3 3 2 2 2 1 1 0 1
6 5 6 7 6 7 7 8 8 6 7 7 8 8 5 6 7 7 8 7 8 9 8 8 7 8 7 7 6 8 10 9 15 12 15 18 19 21 22 14 12 10 9 10 10 8 7 8 8 12 15 16 15 16 16 17 14 9 11 10 10 12 11 6 7 7 6 5 5 5 5 5 4 4 4 3 3 3 3 3 3 3 3 3 2
2 4 5 6 7 8 9 8 7 6 7 6 7 8 7 7 6 7 8 8 8 9 8 7 8 8 9 9 7 7 7 8 11 14 12 17 18 20 20 19 14 11 9 8 8 9 7 8 7 13 16 17 18 17 17 16 12 13 13 12 13 14 6 7 7 7 6 5 5 5 5 4 3 3 3 3 4 4 4 4 3 3 3 3 3
4 6 7 8 8 8 6 6 6 6 6 7 7 6 7 7 7 8 7 8 9 9 10 9 10 10 8 10 10 8 9 8 6 11 17 17 20 21 22 22 18 16 12 10 9 9 9 12 14 16 17 17 17 17 14 16 16 15 15 16 15 6 6 7 7 6 6 6 5 4 4 4 3 3 3 4 5 4 4 3 3 3 3 3 3
5 7 7 7 7 5 6 5 6 6 6 5 7 5 6 6 6 6 8 9 9 10 9 9 9 10 10 9 8 7 6 7 8 10 12 16 17 22 22 20 18 19 17 12 13 12 13 15 17 16 16 15 12 9 8 9 12 13 15 16 8 6 6 6 5 6 6 6 5 5 5 4 3 4 5 4 4 4 4 5 4 4 4 4 4
6 5 6 6 5 5 6 4 4 4 6 5 5 5 6 6 6 7 7 8 9 10 8 8 8 8 9 8 6 4 5 7 9 7 8 8 11 11 12 14 19 17 13 10 9 9 11 12 10 12 10 14 14 11 10 10 11 10 8 7 5 6 5 5 7 7 5 5 4 4 5 5 5 5 5 5 4 4 4 3 3 3 3 3 3
6 6 6 4 3 3 4 7 6 3 4 6 6 6 6 6 7 9 9 9 8 8 8 8 9 8 7 6 5 5 7 7 8 11 11 9 5 8 10 9 9 9 10 8 6 5 5 5 6 6 6 8 9 7 7 7 8 8 8 7 5 4 5 5 3 2 4 5 6 6 6 6 6 7 6 5 4 4 3 3 3 3 3 3 3
6 6 5 3 4 3 3 3 4 4 3 4 6 6 7 8 8 7 9 6 7 7 6 7 7 4 4 5 6 7 6 9 10 8 8 13 13 10 10 11 9 9 10 9 5 5 5 6 6 8 8 8 8 9 8 9 7 7 7 6 5 5 6 5 5 5 5 6 7 7 8 8 8 7 7 6 6 6 5 4 3 3 3 2 2
7 6 3 3 3 3 3 3 3 4 4 4 4 5 7 9 7 6 6 10 12 12 9 7 3 4 5 5 4 5 5 2 7 15 15 15 16 17 14 13 12 9 11 15 11 8 8 7 8 8 9 8 10 11 11 11 10 8 8 7 5 6 6 5 5 5 6 6 7 8 9 8 8 8 7 7 6 6 5 6 4 4 3 3 3
5 4 3 3 4 4 3 3 3 3 3 4 3 4 4 7 13 14 11 8 9 13 13 13 10 7 6 5 5 11 7 3 10 14 16 17 18 18 16 15 15 14 16 13 10 10 8 8 8 9 9 8 9 9 11 11 11 9 8 8 7 6 6 6 6 6 6 7 8 8 8 9 8 8 8 7 7 6 5 5 4 3 3 3 3
6 6 6 5 6 6 4 4 3 3 3 3 4 4 5 5 4 12 17 15 13 12 13 14 14 12 11 9 7 3 7 8 8 12 15 16 16 16 16 16 16 17 19 18 10 8 11 9 8 11 10 9 9 9 10 11 10 9 9 9 9 7 6 5 6 7 8 9 9 8 9 9 8 8 7 7 7 7 6 6 5 4 3 3 3
6 7 7 7 6 7 5 4 4 4 4 3 4 4 5 5 6 4 6 14 16 16 15 14 13 13 13 12 12 10 7 7 10 11 13 14 14 14 15 15 16 17 19 14 12 12 11 11 11 10 11 10 9 11 10 8 11 7 10 10 9 8 7 6 8 8 8 9 8 8 8 8 8 8 7 7 7 7 7 6 6 4 3 3 3
6 5 6 7 7 6 5 5 5 5 4 4 4 4 4 5 6 4 3 2 5 9 12 15 15 13 13 14 13 12 11 11 12 12 13 14 15 15 15 13 16 20 19 15 12 11 10 10 10 10 10 10 10 9 11 11 10 12 10 8 7 7 7 7 8 8 8 8 7 7 7 7 7 7 7 7 6 6 6 6 6 6 5 5 4
4 6 8 7 4 6 5 5 5 5 5 4 5 5 6 5 5 5 5 6 5 5 5 7 12 15 13 12 15 15 14 13 13 14 15 15 15 16 15 11 13 13 14 12 11 11 9 10 10 9 9 10 9 9 10 10 11 11 11 9 7 7 7 7 8 8 8 7 7 7 7 7 7 6 7 7 7 6 6 5 5 5 5 4 5
5 4 4 5 4 4 5 5 5 5 6 6 5 5 6 6 7 6 5 6 7 6 4 4 4 9 16 15 14 15 16 15 15 16 16 17 17 17 14 13 13 12 11 11 10 10 8 8 8 9 9 9 9 9 8 10 10 11 10 11 9 9 8 7 7 7 7 7 7 7 7 6 6 5 5 5 6 6 5 5 5 5 5 5 4
3 4 4 3 3 4 5 5 5 6 7 7 7 6 6 6 5 6 6 6 6 5 5 2 2 3 6 8 11 13 15 15 16 16 17 18 20 15 10 8 10 9 11 11 11 10 10 9 8 8 9 9 9 10 10 10 11 11 10 12 9 9 10 9 9 9 8 7 6 7 6 5 5 5 7 7 6 5 5 5 5 5 5 4 5
4 3 3 4 5 5 5 5 5 7 7 6 6 6 7 6 6 6 6 7 6 6 5 4 5 6 7 6 7 6 7 12 14 13 14 15 14 9 9 12 11 11 11 11 11 10 9 7 7 8 9 10 10 9 10 10 10 9 10 9 7 7 12 10 10 8 6 6 6 6 6 5 5 5 5 6 6 6 6 6 5 5 5 6 5
3 6 6 5 4 4 5 5 5 5 5 5 5 6 6 7 7 7 7 7 7 7 6 7 8 8 7 5 4 5 7 9 11 12 9 8 10 9 9 10 9 10 10 10 8 8 9 9 8 9 8 8 8 8 8 8 8 9 9 8 8 8 9 7 8 7 6 6 6 6 5 5 5 5 4 4 5 5 6 6 6 6 5 5 5
6 7 4 5 4 4 4 5 6 5 5 5 6 5 6 6 7 7 7 8 8 8 8 9 9 9 6 5 5 5 8 10 8 7 6 8 7 8 9 9 9 9 9 8 9 10 9 6 7 9 8 7 8 8 7 9 10 9 8 8 9 9 8 8 8 8 7 7 6 6 6 6 5 4 4 4 4 5 6 6 6 5 5 5 5
4 5 5 5 5 5 5 5 5 5 5 5 5 6 7 7 7 7 7 8 8 8 9 8 9 6 4 5 7 8 7 7 7 7 7 8 7 7 7 8 7 7 6 7 8 8 9 8 8 8 9 8 8 9 10 8 8 9 8 8 8 8 9 9 9 9 9 7 7 8 8 8 7 7 6 5 5 6 5 5 5 5 5 5 5
5 7 6 5 4 4 5 7 6 6 6 6 7 7 6 6 7 7 7 8 7 6 7 8 8 6 4 9 10 12 8 6 7 6 7 7 9 8 7 6 5 6 8 8 8 8 8 8 7 6 7 9 10 9 8 7 8 8 9 8 8 9 8 6 7 8 8 7 7 7 6 6 6 5 5 6 5 5 5 5 5 5 4 4 4
6 5 5 3 5 6 5 6 6 6 6 5 6 6 7 8 9 8 8 7 7 7 7 8 6 4 3 7 9 12 8 6 5 5 5 6 7 6 6 6 5 6 6 6 6 7 8 9 8 6 7 8 8 8 9 8 8 8 8 7 7 8 8 7 8 8 7 7 6 7 8 7 6 5 5 5 4 4 4 6 5 5 4 4 4
6 5 5 7 7 6 7 6 7 7 7 8 8 7 6 7 8 9 9 9 8 8 8 7 6 5 5 4 7 6 6 6 4 6 5 5 6 6 5 4 5 5 5 6 5 5 6 6 6 5 5 5 6 7 6 5 6 7 7 7 9 10 9 9 8 7 7 7 7 8 6 5 5 5 4 4 4 4 4 5 5 5 5 4 4
6 6 6 6 7 7 9 7 7 8 8 7 7 7 7 8 8 8 8 8 7 8 8 7 6 6 5 6 6 6 6 6 4 4 5 6 6 5 5 6 6 6 6 6 6 6 6 7 8 8 9 6 6 6 6 5 6 4 6 8 8 8 10 8 5 6 8 8 6 6 6 5 5 4 5 4 4 4 5 5 5 4 4 5 5
6 7 7 8 8 8 8 8 7 7 7 7 8 7 7 8 8 8 7 7 6 7 7 7 6 6 5 6 6 4 6 5 5 4 3 4 5 5 5 5 6 7 5 6 5 5 6 6 9 9 10 8 8 5 5 5 5 5 6 6 7 6 7 7 8 9 8 7 6 6 6 6 5 5 5 5 5 6 5 4 4 5 5 6 5
8 8 8 8 9 8 7 8 7 8 8 7 8 8 8 8 7 8 8 9 8 6 9 7 7 6 6 6 7 7 5 5 5 5 6 6 6 6 6 7 6 6 5 5 6 6 6 8 8 10 10 8 8 8 6 6 6 5 6 6 7 7 5 5 6 5 5 5 6 6 6 6 6 6 6 6 6 7 7 6 6 6 4 6 5
9 9 9 9 9 9 9 8 9 10 8 7 8 7 8 7 8 7 6 7 8 7 7 6 6 6 5 6 5 6 5 5 5 5 5 6 6 6 6 6 6 7 8 7 7 6 7 9 10 9 7 8 8 7 7 6 6 6 5 5 5 6 8 9 6 6 5 5 6 6 7 7 6 7 8 7 6 6 6 5 6 5 5 5 5
9 9 9 9 9 10 8 9 7 8 9 8 8 9 8 8 8 7 8 7 7 7 7 6 6 6 5 5 5 6 6 5 6 7 7 6 6 6 6 6 7 7 8 9 9 9 10 9 8 6 7 7 7 7 7 7 6 6 6 5 8 13 12 10 7 6 8 6 6 6 6 6 7 7 7 7 7 7 7 6 6 6 5 5 5
9 10 9 10 10 10 9 9 9 9 8 8 8 8 8 8 7 6 7 6 6 7 7 7 7 6 6 7 5 6 7 7 6 7 8 7 6 6 7 7 7 7 7 6 7 7 7 6 7 7 7 7 7 7 7 6 7 7 7 8 14 15 13 12 11 11 7 5 6 6 6 7 8 7 7 7 7 7 7 6 6 5 5 5 5
10 9 9 9 9 9 8 8 8 8 8 8 7 8 8 8 7 7 8 8 8 7 7 7 7 7 6 7 6 7 7 8 8 8 8 8 7 7 8 8 9 9 9 10 8 6 6 6 6 7 7 7 7 7 6 6 6 7 10 16 16 14 14 13 10 10 9 7 6 6 6 7 7 8 7 7 7 6 7 7 6 5 5 5 5
Wind_Direction
213 213 208 211 209 210 211 207 210 208 208 212 217 216 213 215 227 223 212 221 204 203 207 210 210 220 217 215 214 214 214 214 213 214 215 215 216 214 211 212 220 227 222 219 212 215 217 221 221 219 219 225 228 226 223 225 221 227 230 232 234 224 220 231 249 264 258 240 264 267 73 6 251 208 252 230 204 197 221 251 256 244 245 249 255
208 207 206 207 210 212 212 211 212 211 218 225 225 224 217 217 223 216 219 222 201 204 215 221 215 218 217 216 214 214 215 215 213 209 212 215 216 213 212 213 217 220 216 221 214 215 224 227 228 226 216 226 228 229 222 226 227 231 232 223 224 226 207 226 232 257 268 271 251 8 1 101 250 124 227 233 211 151 218 225 246 250 253 263 258
202 203 207 208 212 212 210 210 211 208 218 222 221 220 221 221 221 220 222 223 210 214 218 216 214 214 216 214 212 213 214 213 208 206 211 211 213 216 216 214 217 220 220 220 217 216 222 225 227 220 212 219 228 232 225 228 221 222 225 213 220 222 222 223 244 247 256 261 189 187 189 181 220 171 195 313 25 137 227 229 229 217 231 255 265
198 200 205 209 210 209 209 206 205 215 219 220 221 220 220 220 220 220 222 224 217 213 213 212 211 211 213 212 209 207 209 208 204 205 210 210 214 215 215 218 219 217 219 219 216 214 220 226 228 216 211 220 227 224 227 224 216 215 221 219 216 228 226 225 223 246 243 255 274 205 191 177 209 200 159 81 187 184 208 287 216 244 255 233 244
195 200 204 207 204 207 211 214 217 215 218 219 220 220 219 219 218 216 218 218 215 208 204 208 212 211 209 208 208 206 206 205 207 210 211 213 216 217 216 216 219 221 219 218 212 212 215 218 218 207 206 218 224 220 222 221 217 215 220 217 217 220 227 220 227 223 230 232 243 206 187 208 191 212 169 193 158 187 247 251 262 254 253 251 246
202 200 202 206 205 205 212 214 214 216 216 221 222 221 221 222 219 207 210 215 211 204 205 203 204 206 208 212 212 209 205 205 210 211 211 213 217 217 217 218 220 219 218 220 215 212 213 216 215 205 206 216 223 218 218 220 213 216 220 220 217 217 223 226 214 214 216 232 224 237 199 212 203 210 178 152 184 257 236 216 224 229 241 252 230
204 205 205 206 206 204 208 214 213 216 218 221 224 225 223 220 216 208 204 213 209 206 204 206 207 210 213 212 209 206 207 207 212 212 212 212 213 215 216 215 218 219 219 215 213 212 211 213 210 203 208 212 218 221 213 216 212 217 209 214 214 209 220 227 217 217 217 227 234 228 236 195 206 228 132 145 177 241 248 269 260 201 223 233 256
203 207 205 208 214 212 209 208 212 219 220 219 218 220 220 217 214 210 202 208 213 208 205 203 206 209 213 210 212 207 207 210 211 212 211 211 209 214 214 213 215 217 218 215 213 213 209 207 208 206 207 214 218 220 208 207 210 217 210 205 205 204 219 220 216 214 220 226 224 219 221 208 174 34 82 132 182 220 209 208 242 230 209 208 222
203 204 206 213 218 214 206 204 215 222 216 219 216 217 215 214 210 207 203 211 212 210 204 201 202 207 213 211 209 206 210 212 209 207 208 209 209 211 211 213 213 211 215 215 213 212 213 215 215 218 213 215 212 211 208 205 203 211 204 192 199 202 216 213 212 203 216 216 230 217 215 216 219 175 183 187 208 224 148 185 225 244 273 287 261
202 204 210 217 218 207 207 204 212 221 216 216 218 213 213 212 208 209 212 210 209 204 201 201 204 207 207 210 211 209 214 217 210 204 203 205 205 208 206 210 212 212 209 212 215 214 219 213 213 208 205 207 208 210 211 209 210 209 199 183 191 199 207 207 205 203 204 210 215 199 210 219 201 201 205 209 162 103 160 185 218 213 198 255 259
210 213 221 222 215 203 208 213 204 215 222 219 217 211 206 208 210 213 213 206 206 203 197 203 209 208 207 207 210 214 217 217 209 203 206 204 200 200 204 208 204 211 214 212 207 208 216 218 216 203 205 212 214 214 216 215 214 214 208 194 196 195 197 206 213 197 203 215 212 198 211 225 209 179 203 182 166 192 200 193 219 221 242 263 288
215 223 231 224 211 212 213 208 207 216 219 220 218 214 210 208 212 211 210 206 208 194 205 211 210 208 209 210 213 216 219 214 205 206 204 203 203 203 201 204 203 208 209 215 215 206 200 207 214 206 203 206 204 208 215 215 214 216 213 205 205 211 205 195 197 194 199 205 203 207 201 220 205 168 188 171 191 183 195 205 213 221 235 248 262
211 229 233 226 224 221 214 211 216 216 216 221 215 205 206 211 214 211 213 209 190 202 213 209 212 210 207 211 217 216 221 209 205 204 204 202 199 196 198 201 198 205 206 209 209 205 200 203 211 211 212 208 209 208 201 206 211 215 217 216 215 211 213 211 201 193 184 200 205 207 205 197 197 198 181 175 171 214 200 213 214 211 221 233 251
202 219 224 228 231 227 221 218 220 221 207 201 210 200 187 213 215 215 211 194 203 211 212 212 212 209 210 212 217 217 219 209 202 202 202 200 198 196 209 208 210 207 206 203 203 202 200 194 197 209 207 201 205 202 190 199 184 194 205 207 209 216 215 205 198 194 188 201 200 214 201 177 192 180 164 160 187 206 202 221 196 202 210 232 57
205 220 226 223 223 226 224 223 229 227 198 194 212 217 219 223 220 214 207 206 207 211 210 212 214 213 213 214 216 219 222 203 198 200 202 201 201 192 207 210 214 215 211 204 201 197 195 196 198 204 199 201 206 201 198 193 187 196 201 204 207 200 191 195 196 185 181 197 208 212 156 184 199 166 155 174 199 216 221 212 199 213 144 94 209
216 212 223 223 220 219 214 221 226 224 206 200 215 222 222 222 222 213 209 215 218 218 223 217 216 214 212 210 214 223 222 197 198 200 198 197 189 192 204 203 205 206 209 209 208 205 203 203 210 216 214 211 207 199 198 187 186 191 196 198 196 178 165 23 32 46 112 161 160 144 137 114 98 142 162 177 179 130 102 110 122 144 200 223 227
216 216 222 222 217 210 205 208 210 205 201 205 216 221 220 221 223 210 214 215 212 214 219 216 218 216 214 211 215 224 223 199 198 199 195 190 181 199 203 206 209 212 218 210 206 207 210 206 208 215 212 217 201 195 197 187 184 186 186 183 178 179 183 103 85 93 95 88 88 93 102 119 125 127 134 143 181 155 167 171 192 185 201 219 217
218 212 225 223 217 198 196 200 202 199 197 210 216 220 220 219 218 201 212 213 218 219 217 224 223 222 216 217 215 221 224 200 196 201 198 192 191 199 202 206 216 218 225 214 212 212 213 202 202 204 206 209 192 193 191 184 188 184 177 174 176 193 191 162 131 87 82 78 81 79 82 94 111 114 144 162 156 179 186 206 161 172 209 214 214
227 220 226 223 213 191 193 197 204 201 210 216 212 219 216 217 214 196 216 221 230 223 216 220 224 221 221 222 217 222 227 210 199 206 206 203 201 208 206 214 220 225 207 201 201 206 207 201 203 205 206 201 189 191 188 189 188 177 178 178 193 200 195 169 162 153 150 130 116 113 102 113 134 138 124 152 161 194 221 145 139 204 210 202 190
228 230 240 237 228 209 204 212 210 208 217 224 219 221 208 208 202 202 212 212 222 217 216 218 221 225 217 219 219 220 225 223 203 208 209 210 205 205 208 207 217 215 207 204 197 204 201 200 206 209 210 200 192 189 188 191 193 181 174 191 194 206 167 158 172 149 153 152 148 147 127 120 114 115 123 127 140 160 150 162 189 225 226 193 181
243 238 245 252 237 221 217 214 216 220 219 219 211 210 207 208 197 199 207 206 213 220 217 219 223 228 218 221 224 226 223 226 214 205 210 208 205 198 206 211 215 205 202 202 206 206 208 209 203 204 206 204 197 192 188 192 201 189 186 195 202 177 149 151 159 153 149 135 133 141 142 139 138 140 142 149 150 143 126 103 128 246 209 207 186
242 258 252 244 241 229 230 236 228 224 213 203 207 211 207 198 196 198 200 201 210 220 219 220 224 228 226 222 224 229 222 221 224 209 209 212 213 210 212 217 210 200 201 210 212 216 212 200 208 198 200 202 198 196 193 192 195 192 200 194 148 142 151 135 141 148 154 160 158 158 157 161 169 166 163 158 142 126 120 121 108 103 86 121 219
240 232 239 241 230 229 229 224 222 220 214 205 207 218 196 193 194 190 192 198 209 217 216 217 218 229 228 226 220 222 224 220 218 216 209 211 215 217 220 222 207 208 208 212 213 216 205 198 195 185 197 196 196 195 192 190 188 197 186 166 152 142 142 143 148 157 161 163 159 168 171 173 173 171 170 162 141 132 133 123 117 111 92 73 53
234 234 236 236 232 230 227 223 220 214 213 207 210 210 199 194 194 197 192 197 207 213 217 211 218 226 225 230 222 216 215 219 215 213 209 210 217 218 219 218 204 210 212 224 216 213 204 198 185 187 197 197 193 191 190 186 189 186 176 159 149 151 147 145 162 162 155 155 170 173 176 174 165 165 165 151 144 137 118 113 105 109 118 113 98
237 236 234 230 232 238 233 228 216 212 207 198 206 204 203 190 198 204 193 203 205 211 216 209 216 222 224 229 227 219 211 207 207 203 208 208 213 215 215 212 207 197 205 218 210 212 202 187 190 192 196 195 192 188 187 187 183 175 169 158 156 158 159 161 160 153 159 171 177 173 160 162 159 145 122 112 107 111 115 108 107 103 103 105 97
253 247 249 249 246 235 229 230 223 217 210 205 210 204 195 189 199 193 201 209 208 213 216 209 215 218 225 224 220 214 199 203 206 207 205 210 213 216 213 210 210 207 209 213 210 201 193 194 194 192 192 190 185 187 187 182 174 171 167 160 163 165 164 164 154 158 166 167 172 168 157 143 133 119 116 133 150 162 159 153 146 148 154 151 139
268 260 254 258 257 242 238 226 212 206 209 211 210 211 202 198 199 198 196 203 207 213 212 205 207 209 214 214 211 205 203 203 207 201 199 202 212 210 209 214 212 209 213 214 200 200 198 194 190 183 187 189 188 181 176 162 166 172 168 170 169 167 172 175 166 164 158 156 156 151 140 133 118 124 154 170 174 169 173 170 163 152 150 161 153
277 277 270 261 259 235 239 244 238 223 202 200 205 208 210 204 207 208 199 198 196 209 209 211 213 208 215 208 204 206 211 205 201 205 203 199 195 201 207 209 205 208 211 206 195 181 167 159 166 173 179 183 188 182 183 179 177 169 169 173 172 155 174 178 159 134 135 145 141 136 132 138 153 169 175 184 183 177 174 179 169 157 151 162 157
285 281 279 272 261 253 244 241 231 239 220 216 225 214 199 199 211 226 222 212 210 211 210 228 227 221 210 204 193 214 216 219 224 188 196 194 199 198 198 205 202 202 201 171 137 134 147 165 172 178 186 184 187 192 183 178 177 178 167 165 157 159 166 169 174 168 147 138 147 151 157 167 174 173 174 176 180 177 179 178 172 154 161 170 162
306 297 287 283 274 261 250 240 227 233 233 230 230 249 252 247 241 226 227 214 227 232 233 237 235 218 227 233 214 226 231 250 149 174 194 196 203 206 209 203 198 191 170 161 161 164 178 173 183 183 186 183 190 192 189 187 178 170 174 166 159 168 172 166 163 154 151 157 149 164 172 169 172 173 177 176 173 173 181 174 170 160 164 167 153
307 302 310 297 299 294 281 265 247 237 240 236 239 246 252 234 235 244 251 243 224 228 235 243 253 239 227 238 225 232 258 114 160 179 189 196 199 205 206 202 192 181 165 156 178 190 179 186 188 190 188 187 187 184 189 188 183 171 169 171 176 173 170 170 164 150 156 161 173 176 173 175 175 175 176 174 169 167 167 174 166 173 170 171 163
310 313 318 317 318 306 292 288 279 260 256 243 241 245 247 263 249 217 226 233 236 230 227 231 233 233 235 236 243 243 223 212 185 184 192 196 199 201 203 199 193 182 178 173 180 194 198 193 180 191 188 190 192 180 184 189 183 173 168 169 177 176 174 171 155 159 172 175 176 174 175 177 175 173 172 168 162 163 165 168 173 179 180 175 178
305 306 310 313 314 311 305 299 289 281 268 255 247 238 249 250 260 271 212 224 228 228 229 228 227 228 228 228 225 233 227 189 196 194 193 197 196 198 198 198 192 186 176 186 203 201 199 197 198 190 188 193 182 184 183 179 182 167 176 173 171 168 173 161 156 170 177 181 173 173 171 170 168 167 166 163 163 164 167 170 173 173 171 175 184
295 299 312 319 315 308 301 298 294 286 279 275 269 260 247 246 256 260 259 215 228 246 242 233 228 223 224 219 218 218 216 196 194 193 192 191 192 193 193 198 194 188 186 200 202 209 200 202 200 194 190 189 186 177 181 183 180 183 178 173 162 155 159 152 159 171 171 168 167 165 162 165 163 162 162 162 166 162 161 170 173 171 183 187 190
293 289 285 294 298 299 299 296 292 286 289 277 273 268 264 266 261 258 250 249 244 225 221 224 222 218 220 219 215 211 206 198 191 191 191 192 190 191 189 191 196 198 201 209 210 210 206 205 204 195 189 191 185 177 182 176 177 178 178 167 159 154 154 164 172 169 164 162 165 167 166 161 162 164 160 160 161 163 163 162 170 175 177 185 185
302 296 302 301 284 286 292 295 293 291 286 282 277 272 274 273 261 259 260 259 261 261 251 214 202 209 217 221 215 211 209 201 195 192 193 191 192 186 191 197 194 199 199 206 211 213 211 207 199 193 189 189 179 181 182 174 175 176 177 173 165 166 164 162 162 160 163 165 165 160 156 159 161 157 149 155 161 165 168 168 170 174 176 182 190
306 303 305 308 307 300 294 287 281 283 285 284 283 278 270 262 262 264 262 258 258 259 260 242 180 227 217 227 222 218 214 209 204 198 196 195 194 191 198 190 198 195 199 199 203 208 210 208 199 191 184 183 180 185 180 178 176 176 174 177 161 156 165 160 160 162 165 165 159 158 161 157 153 155 164 166 167 168 166 169 173 171 173 173 173
248 267 281 299 305 289 283 278 279 279 272 267 265 263 263 261 256 255 257 256 254 257 252 251 232 238 231 228 200 211 217 216 211 209 205 201 200 199 199 202 201 200 203 202 205 202 204 194 186 183 184 185 188 185 184 180 175 170 170 162 141 138 146 145 149 151 152 148 149 149 150 147 150 147 158 162 165 171 174 174 170 168 173 175 190
237 274 268 274 276 281 282 289 288 288 276 269 262 262 262 263 259 255 254 257 257 250 250 249 245 238 238 224 192 202 200 213 210 214 207 207 207 204 203 205 204 207 202 200 187 189 192 191 185 181 183 182 180 183 178 173 163 167 154 135 134 138 143 142 146 150 150 149 145 148 146 145 149 156 160 152 161 166 170 164 171 175 185 191 198
281 292 287 300 295 282 281 288 290 284 277 278 280 268 267 266 267 262 259 257 254 254 250 246 244 241 228 204 200 188 209 217 216 213 210 209 204 202 203 204 204 201 196 189 188 193 189 181 178 183 181 176 175 172 163 160 163 150 133 137 140 145 147 146 149 150 153 148 147 148 148 150 153 148 145 154 157 167 170 171 174 178 185 191 194
246 255 271 268 249 276 273 273 267 274 290 286 282 282 273 269 267 264 261 256 254 255 253 252 254 246 213 199 194 193 209 219 217 215 214 208 199 199 203 209 205 195 185 180 185 190 188 179 182 177 173 168 165 162 160 148 129 136 135 133 133 138 147 154 156 162 159 149 153 162 163 163 161 161 167 168 163 167 169 173 178 182 186 185 187
241 253 254 264 251 234 257 275 273 270 264 270 274 272 275 271 266 263 262 261 256 251 254 255 254 252 212 191 204 206 211 223 219 220 215 208 209 208 205 202 195 190 189 189 183 175 180 178 172 154 158 164 161 157 149 133 136 135 140 140 138 143 141 138 145 148 151 148 148 146 147 150 150 151 146 147 151 156 157 162 167 160 155 160 159
255 249 248 248 254 256 241 251 259 259 253 248 260 262 263 267 270 268 265 261 257 253 252 249 246 230 223 210 217 214 218 225 225 216 210 203 206 200 196 191 172 178 184 182 174 170 170 165 158 147 156 152 152 155 154 149 144 137 134 134 132 144 142 140 146 152 149 140 134 139 140 143 136 132 140 139 139 136 151 163 162 170 174 174 174
255 260 258 256 255 254 254 254 251 239 241 248 254 257 257 260 260 258 260 261 255 252 248 245 240 219 218 216 217 220 223 221 210 208 196 193 191 182 171 147 145 142 145 148 141 139 138 125 122 113 113 124 131 130 131 122 127 128 127 132 144 154 154 154 154 148 139 130 130 138 128 123 125 126 126 134 137 145 153 168 176 179 179 181 187
251 253 252 249 247 250 256 244 241 249 253 253 242 238 241 242 246 249 249 251 253 252 248 246 233 213 212 209 203 203 209 208 202 174 174 176 165 161 156 150 144 142 137 134 137 129 119 121 127 131 129 122 125 118 112 126 135 118 130 141 140 153 164 158 131 128 116 120 125 125 130 131 136 131 134 135 141 144 164 174 175 158 162 174 173
245 247 249 251 254 251 251 249 244 246 240 235 242 245 237 233 236 241 243 244 243 244 243 235 226 216 207 203 198 198 195 183 182 164 143 148 156 154 149 144 141 139 133 140 134 119 127 134 137 134 133 126 124 97 87 82 83 88 125 137 129 129 114 106 96 113 119 121 125 128 128 124 125 131 136 142 150 170 165 154 158 174 176 181 180
249 247 247 247 247 245 244 247 246 243 242 240 241 243 243 239 238 240 238 240 240 241 241 231 221 215 208 197 191 188 180 166 168 162 165 154 154 150 139 138 130 123 120 116 128 121 125 131 131 131 130 114 109 99 89 82 86 81 66 80 87 100 100 108 105 109 111 109 115 125 133 132 137 137 142 142 149 160 165 167 166 162 162 179 177
243 244 243 245 246 245 244 234 239 242 240 237 238 237 241 242 238 235 232 231 229 228 229 223 222 215 206 198 187 177 162 163 152 154 141 146 148 143 138 131 128 133 132 128 133 123 128 133 129 118 105 105 104 102 101 102 93 98 94 95 100 100 118 119 103 106 111 116 123 127 132 138 142 149 157 154 157 157 157 158 162 160 167 171 180
243 244 244 241 240 240 238 236 233 234 234 232 235 236 234 232 230 231 229 223 221 221 218 212 213 204 199 188 175 167 159 152 151 152 147 145 138 134 135 134 127 130 133 134 132 131 130 126 117 102 102 101 99 102 106 104 103 95 100 92 112 116 117 118 121 125 133 128 124 126 128 132 136 139 145 151 155 154 156 156 157 158 164 166 166
244 243 243 245 243 243 241 240 241 238 237 233 232 232 229 227 221 212 216 211 213 213 210 208 204 196 189 185 177 170 162 162 150 151 150 144 135 133 134 134 134 133 130 107 114 116 112 96 94 93 93 96 99 103 104 102 105 110 113 126 132 132 134 131 130 131 132 129 130 134 135 137 143 144 144 149 154 155 155 157 157 159 161 162 167
252 249 246 245 246 247 242 238 239 237 237 234 233 233 229 225 223 220 216 213 208 206 201 196 190 185 179 183 176 176 165 160 156 147 145 145 141 132 136 132 130 123 110 116 111 94 99 99 99 100 101 103 103 102 101 102 102 119 132 138 139 138 137 139 139 135 125 125 128 133 137 141 145 147 144 145 149 150 155 156 163 162 165 167 167